Decatur, IL

10:17 PM CST on November 24, 2017 (GMT -0600)
Decatur

Weather History for KDEC - May, 2014

Change the Weather History Date:

Thursday, May 8, 2014

  Actual Average Record
Temperature  
Mean Temperature 78 °F 60 °F  
Max Temperature 87 °F 72 °F 87 °F (2004)
Min Temperature 68 °F 49 °F 42 °F (2017)
Degree Days  
Heating Degree Days 0 6  
Month to date heating degree days 44 52  
Since 1 July heating degree days 6066 5415  
Cooling Degree Days 13 1  
Month to date cooling degree days 24 8  
Year to date cooling degree days 25 22  
Growing Degree Days 27 (Base 50)    
Moisture  
Dew Point 61 °F    
Average Humidity 59    
Maximum Humidity 76    
Minimum Humidity 42    
Precipitation  
Precipitation 0.12 in 0.15 in 0.57 in (2016)
Month to date precipitation 0.12 1.26  
Year to date precipitation 7.18 11.42  
Sea Level Pressure  
Sea Level Pressure 29.86 in    
Wind  
Wind Speed 18 mph (SSW)    
Max Wind Speed 30 mph    
Max Gust Speed 39 mph    
Visibility 10 miles    
Events Rain    
T = Trace of Precipitation, MM = Missing Value Source: NWS Daily Summary

Daily Weather History Graph

Daily Weather History Graph

Search for Another Location

Airport or City:

Trip Planner

Search our weather history database for the weather conditions in past years. The results will help you decide how hot, cold, wet, or windy it might be!

Date:

Astronomy

May. 08, 2014 Rise Set
Actual Time 5:47 AM CDT 7:56 PM CDT
Civil Twilight 5:17 AM CDT 8:26 PM CDT
Nautical Twilight 4:41 AM CDT 9:03 PM CDT
Astronomical Twilight 4:01 AM CDT 9:43 PM CDT
Moon 1:58 PM CDT (5/8) 2:18 AM CDT (5/8)
Length of Visible Light 15h 09m
Length of Day
14h 09m
Waxing Gibbous, 65% of the Moon is Illuminated
May 8
Waxing Gibbous
May 14
Full
May 21
Last Quarter
May 28
New
Jun 5
First Quarter

Hourly Weather History & Observations

Time (CDT) Temp. Heat Index Dew Point Humidity Pressure Visibility Wind Dir Wind Speed Gust Speed Precip Events Conditions
12:54 AM 71.1 °F - 57.9 °F 63% 29.84 in 10.0 mi South 13.8 mph - N/A   Clear
1:54 AM 69.1 °F - 57.9 °F 68% 29.83 in 10.0 mi South 11.5 mph - N/A   Clear
2:54 AM 69.1 °F - 59.0 °F 70% 29.84 in 10.0 mi South 12.7 mph - N/A   Clear
3:54 AM 69.1 °F - 59.0 °F 70% 29.85 in 10.0 mi SSW 13.8 mph - N/A   Clear
4:54 AM 68.0 °F - 59.0 °F 73% 29.86 in 10.0 mi SSW 16.1 mph - N/A   Clear
5:54 AM 68.0 °F - 60.1 °F 76% 29.87 in 10.0 mi SSW 13.8 mph - N/A   Clear
6:54 AM 69.1 °F - 60.1 °F 73% 29.88 in 10.0 mi SSW 11.5 mph - N/A   Clear
7:54 AM 73.0 °F - 61.0 °F 66% 29.88 in 10.0 mi SSW 17.3 mph 25.3 mph N/A   Clear
8:54 AM 75.0 °F - 62.1 °F 64% 29.89 in 10.0 mi SSW 19.6 mph - N/A   Clear
9:54 AM 78.1 °F - 63.0 °F 60% 29.88 in 10.0 mi SSW 23.0 mph 27.6 mph N/A   Clear
10:54 AM 80.1 °F 81.2 °F 62.1 °F 54% 29.89 in 10.0 mi SSW 18.4 mph 28.8 mph N/A   Clear
11:54 AM 82.0 °F 83.1 °F 63.0 °F 52% 29.89 in 10.0 mi South 17.3 mph - N/A   Clear
12:54 PM 84.0 °F 84.4 °F 61.0 °F 46% 29.87 in 10.0 mi SSW 20.7 mph 27.6 mph N/A   Clear
1:54 PM 86.0 °F 86.1 °F 61.0 °F 43% 29.86 in 10.0 mi SSW 16.1 mph 28.8 mph N/A   Clear
2:54 PM 86.0 °F 86.1 °F 61.0 °F 43% 29.84 in 10.0 mi SSW 23.0 mph 31.1 mph N/A   Clear
3:54 PM 86.0 °F 86.1 °F 61.0 °F 43% 29.83 in 10.0 mi South 20.7 mph 33.4 mph N/A   Partly Cloudy
4:54 PM 82.9 °F 83.3 °F 61.0 °F 47% 29.83 in 10.0 mi South 23.0 mph 33.4 mph N/A   Clear
5:54 PM 82.0 °F 82.1 °F 59.0 °F 45% 29.84 in 10.0 mi SSW 21.9 mph 36.8 mph N/A   Clear
6:54 PM 81.0 °F 81.7 °F 61.0 °F 50% 29.84 in 10.0 mi South 21.9 mph 27.6 mph N/A   Clear
7:54 PM 79.0 °F - 63.0 °F 58% 29.86 in 10.0 mi South 18.4 mph 27.6 mph N/A   Scattered Clouds
8:54 PM 78.1 °F - 63.0 °F 60% 29.86 in 10.0 mi South 21.9 mph 29.9 mph N/A   Mostly Cloudy
9:54 PM 77.0 °F - 62.1 °F 60% 29.86 in 10.0 mi South 15.0 mph 23.0 mph N/A   Overcast
10:54 PM 75.0 °F - 62.1 °F 64% 29.83 in 10.0 mi South 16.1 mph - N/A   Mostly Cloudy
11:54 PM 71.1 °F - 64.9 °F 81% 29.84 in 2.5 mi West 17.3 mph 25.3 mph 0.10 in Rain Heavy Rain